Preview of NWS' New Version of Forecast
This preview is not operational and should not be used for support decisions.
Latest weather observations around

Monroe Regional Airport (KMLU)

Using English Units (Switch to International System of Units)
Date/ Time (CDT) Wind (mph) Vis. (mi) Weather Sky Cond. Temp (°F) Rel. Humidity Wind Chill (°F) Heat Index (°F) Pressure Precip. (in)
Air Dwpt 6 hour Altimeter (inHg) Sea level (inHg) 1 hr 3 hr 6 hr
Max Min
Jun 25 04:30 Calm 3 Fog/Mist CLR 71 70     96%   72 29.99        
Jun 25 04:18 Calm 1.75 Fog/Mist CLR 71 70     96%   72 29.99        
Jun 25 03:53 Calm 10 Clear CLR 72 70     93%   73 29.98 29.97      
Jun 25 02:53 SSE 5 10 Clear CLR 73 71     94%   74 29.98 29.97      
Jun 25 01:53 S 5 10 Clear CLR 74 71     91%   75 29.98 29.97      
Jun 25 00:53 Calm 10 Clear CLR 72 70     93%   73 29.97 29.96      
Jun 24 23:53 Calm 10 Clear CLR 72 70     93%   73 29.95 29.94      
Jun 24 22:53 Calm 10 Clear CLR 74 71     91%   75 29.95 29.95      
Jun 24 21:53 Calm 10 Clear CLR 74 71     91%   75 29.94 29.94      
Jun 24 20:53 Calm 10 Clear CLR 77 71     82%   78 29.94 29.93      
Jun 24 19:53 SW 6 10 Clear   80 69     69%   83 29.94 29.93      
Jun 24 18:53 SW 11 10 Clear CLR 84 68     59%   87 29.94 29.93      
Jun 24 17:53 SW 13 10 Clear CLR 85 69     59%   89 29.93 29.92      
Jun 24 16:53 WSW 8 10 Clear   85 68     57%   88 29.93 29.93      
Jun 24 15:53 SSW 5 10 Clear CLR 85 70     61%   89 29.94 29.93      
Jun 24 14:53 S 6 10 Clear CLR 84 69     61%   88 29.94 29.94      
Jun 24 13:53 SSW 5 10 Clear CLR 81 67     62%   83 29.95 29.95      
Jun 24 12:53 SW 9 10 Clear CLR 80 67     64%   82 29.95 29.95     0
Jun 24 11:53 WSW 9 10 Clear CLR 77 66     69%   78 29.96 29.95      
Jun 24 10:53 WSW 10 10 Partly Cloudy SCT019 73 66     79%   74 29.95 29.95      
Jun 24 09:53 6 10 Partly Cloudy SCT110 71 64     79%   72 29.89 29.88   0  
Jun 24 08:53 SSW 10 10 Mostly Cloudy BKN110 70 66     87%     29.93 29.92      
Jun 24 07:53 S 10 10 Mostly Cloudy BKN110 68 66     93%     29.91   0    
Jun 24 06:53 S 9 10 Mostly Clear FEW120 68 66     93%     29.96 29.95     1
Jun 24 05:53 SSE 5 10 Clear CLR 68 66     93%     29.93 29.92      
Jun 24 04:53 SSW 5 10 Mostly Cloudy FEW070 BKN110 68 65     90%     29.9 29.89      
Jun 24 03:53 N 6 10 Mostly Cloudy FEW075 SCT090 BKN110 68 65     90%     29.89 29.88 0 1  
Jun 24 02:53   9 Mostly Cloudy FEW100 BKN120 69 64     84%     29.91 29.91 0    
Jun 24 02:43   9 Mostly Cloudy FEW055 BKN110 69 65     87%     29.92   0    
Jun 24 02:19   3 Fog/Mist FEW007 OVC038 69 65     87%     29.91   0    
Jun 24 02:11   2 Fog/Mist FEW007 SCT016 OVC027 69 66     90%     29.9   0    
Jun 24 02:01   1.25 Fog/Mist FEW007 SCT014 OVC020 69 67     93%     29.9   0    
Jun 24 01:53   1 Thunderstorms and Fog/Mist FEW007 OVC015 69 67     93%     29.88 29.88 1    
Jun 24 01:42   1.5 Thunderstorms and Fog/Mist SCT009 BKN017 OVC022 71 67     87%   72 29.85   0    
Jun 24 01:39   2.5 Haze FEW011 BKN017 OVC022 73 68     84%   74 29.84   0    
Jun 24 00:53 S 13 10 Cloudy OVC023 83 76     79%   91 29.8 29.8      
Jun 23 23:53 E 7 10 Cloudy OVC025 75 69     82%   76 29.85 29.85      
Jun 23 23:37 E 7 10 Mostly Cloudy BKN024 BKN029 BKN070 75 69     82%   76 29.85        
Jun 23 23:12 NE 7 10 Cloudy SCT024 BKN030 OVC070 77 70     79%   78 29.87        
Jun 23 22:53 NE 6 10 Cloudy BKN024 OVC031 78 70     76%   79 29.88 29.87      
Jun 23 22:43 NE 8 10 Cloudy BKN026 BKN031 OVC090 79 71     77%   82 29.87        
Jun 23 21:53 SSE 5 10 Clear CLR 84 74     72%   91 29.86 29.85      
Jun 23 20:53 S 8 10 Clear CLR 86 73     65%   93 29.84 29.83      
Jun 23 19:53 S 9 10 Partly Cloudy SCT049 88 75     66%   98 29.83 29.82      
Jun 23 18:53 S 8 10 Clear CLR 89 74     61%   98 29.83 29.83     0
Jun 23 17:53 S 14 10 Mostly Clear FEW042 92 74     56%   102 29.83 29.82      
Jun 23 16:53 S 11 10 Clear CLR 93 76     58%   106 29.84 29.84 0    
Jun 23 15:53 S 8 10 Light Rain SCT024 BKN050 90 75     62%   101 29.88 29.88 0 0  
Jun 23 14:53 S 8 10 Mostly Cloudy SCT048 BKN080 91 74     57%   101 29.92 29.91      
Jun 23 13:53 S 11 10 Mostly Cloudy BKN043 93 75     56%   105 29.94 29.93      
Jun 23 12:53 SW 20 10 Mostly Cloudy and Windy BKN039 BKN055 BKN070 91 74     57%   101 29.95 29.95      
Jun 23 11:53 SSW 16 10 Mostly Cloudy FEW034 BKN055 90 75     62%   101 29.96 29.96      
Jun 23 11:02   10 Mostly Cloudy BKN030 89 75     63%   99 29.96        
Jun 23 10:53 SSW 15 10 Mostly Cloudy BKN028 BKN033 89 76     65%   100 29.96 29.96      
Jun 23 10:00 SSW 16 10 Mostly Cloudy BKN020 BKN033 88 76     68%   99 29.97        
Jun 23 09:53 S 14 10 Mostly Cloudy SCT024 SCT029 BKN033 87 76     70%   98 29.97 29.96      
Jun 23 09:34 S 14 10 Partly Cloudy SCT022 SCT027 87 76     70%   98 29.97        
Jun 23 08:53 S 10 10 Mostly Cloudy BKN020 BKN028 84 76     77%   93 29.98 29.98      
Jun 23 08:08 S 13 9 Mostly Cloudy BKN018 BKN023 82 76     82%   89 29.99        
Jun 23 07:53 S 8 9 Mostly Clear FEW016 82 76     82%   89 29.99 29.98      
Jun 23 06:53 S 6 7 Mostly Cloudy FEW021 SCT039 BKN055 80 76     87%   85 29.99 29.99      
Jun 23 06:13 SSE 5 7 Mostly Cloudy FEW020 SCT030 BKN044 80 76     87%   85 29.99        
Jun 23 06:04 S 5 8 Mostly Cloudy SCT018 BKN023 BKN029 80 76     87%   85 29.99        
Jun 23 05:53 S 5 9 Cloudy SCT018 BKN033 OVC042 80 76     87%   85 29.99 29.98      
Jun 23 05:26 S 6 9 Clear   80 76     87%   85 29.99        
Jun 23 04:53 SSW 8 9 Clear   80 76     87%   85 29.99 29.98      
Jun 23 04:24 S 8 9 Mostly Cloudy BKN020 80 76     87%   85 29.98        
Jun 23 03:53 S 9 9 Clear CLR 80 76     87%   85 29.97 29.96      
Jun 23 02:53 S 10 10 Clear CLR 81 76     85%   87 29.97 29.96      
Jun 23 01:53 SSW 13 10 Clear CLR 82 76     82%   89 29.97 29.96      
Jun 23 00:53 S 7 10 Clear CLR 82 76     82%   89 29.97 29.97      
Jun 22 23:53 S 7 10 Clear CLR 84 76     77%   93 29.99 29.98      
Jun 22 22:53 SE 5 10 Clear CLR 84 76     77%   93 30 30      
Jun 22 21:53 3 10 Clear CLR 84 75     74%   92 29.99 29.98      
Jun 22 20:53 SE 3 10 Clear CLR 85 75     72%   93 29.96 29.95      
Jun 22 19:53 S 7 10 Clear CLR 88 74     63%   97 29.96 29.95      
Jun 22 18:53 S 8 10 Clear CLR 91 74     57%   101 29.97 29.96      
Jun 22 17:53 S 13 10 Partly Cloudy SCT050 93 73     52%   102 29.97 29.97      
Jun 22 16:53 S 11 10 Clear CLR 93 73     52%   102 29.98 29.97      
Jun 22 15:53 S 11 10 Mostly Clear FEW060 94 74     53%   104 29.99 29.98      
Jun 22 14:53 S 13 10 Partly Cloudy SCT050 94 74     53%   104 30 29.99      
Jun 22 13:53 S 8 10 Mostly Cloudy BKN050 93 74     54%   103 30 30      
Jun 22 12:53 SSW 11 10 Mostly Cloudy SCT039 BKN049 91 74     57%   101 30.02 30.02      
Jun 22 11:53 SSW 10 6 Haze SCT036 BKN046 90 76     64%   102 30.03 30.03      
Jun 22 11:00 SSW 13 6 Haze SCT028 BKN040 88 75     66%   98 30.04        
Jun 22 10:53 SSW 13 10 Haze BKN023 BKN030 BKN035 87 75     68%   97 30.04 30.03      
Jun 22 09:53 SSW 14 6 Haze BKN026 BKN033 86 76     72%   96 30.03 30.03      
Jun 22 08:53 SSW 11 10 Mostly Cloudy SCT020 SCT026 BKN033 87 78     75%   100 30.04 30.03      
Jun 22 07:53 S 8 8 Mostly Cloudy FEW010 BKN034 82 78     88%   91 30.02 30.02      
Jun 22 07:49 S 8 8 Mostly Cloudy FEW008 BKN034 82 79     89%   92 30.02        
Jun 22 06:53 S 6 4 Fog/Mist BKN031 80 78     94%   86 30.01 30.01      
May 14 15:53 WSW 7 10 Clear CLR 92 66     43%   95 29.95 29.94      
May 14 06:53 Calm 5 Fog/Mist CLR 69 69     100%     30.04 30.04      
May 13 02:53 S 3 10 Clear CLR 72 68     87%   73 30.03 30.02      
May 12 02:53 S 5 10 Clear CLR 70 65     84%     30.02 30.02      
May 11 16:53 SSW 10 10 Clear CLR 88 63     43%   89 29.98 29.97      
Jun 11 22:53 E 3 10 Clear   74 72     94%   75 30.02 30.01 0    
Jun 11 10:53 6 10 Partly Cloudy SCT050 83 70     65%   87 30.05 30.05      
Jun 11 01:53 S 3 10 Clear CLR 72 64     76%   72 30 29.99      
Jun 09 08:53 5 10 Clear CLR 73 61     66%   73 29.98 29.98      
Jun 09 04:53 Calm 10 Clear CLR 62 59     90%     29.93 29.93      
Jun 07 10:53 NE 17 10 Clear CLR 79 60     52%   79 29.93 29.92      
Jun 06 07:53 N 6 6 Light Rain and Fog/Mist OVC005 73 71     94%   74 29.77 29.76 0    
Jun 06 04:53 N 6 10 Light Rain OVC110 72 71     97%   73 29.74 29.73 0    
Notice The following observation data may not be complete
Jun 06 03:06   1 Heavy Rain and Fog/Mist FEW007 SCT017 OVC027          %         0    
Jun 06 01:53 N 5 10 Cloudy SCT019 BKN040 OVC090 74 71     91%   75 29.74 29.73      
Jun 05 14:11 5 10 Cloudy BKN020 OVC048 80 69     69%   83 29.75